Blackpool, United Kingdom

12:09 PM BST on April 29, 2017 (GMT +0100)
Blackpool

Weather History for EGNH - August, 2013

Change the Weather History Date:

Thursday, August 1, 2013

  Actual Average Record
Temperature  
Mean Temperature 72 °F -  
Max Temperature 81 °F 64 °F 81 °F (2013)
Min Temperature 63 °F 55 °F 46 °F (2004)
Cooling Degree Days 7    
Growing Degree Days 22 (Base 50)    
Moisture  
Dew Point 63 °F    
Average Humidity 73    
Maximum Humidity 88    
Minimum Humidity 52    
Precipitation  
Precipitation 0.00 in - - ()
Sea Level Pressure  
Sea Level Pressure 29.71 in    
Wind  
Wind Speed 12 mph ()    
Max Wind Speed 18 mph    
Max Gust Speed -    
Visibility 6.2 miles    
Events      
Averages and records for this station are not official NWS values.
T = Trace of Precipitation, MM = Missing Value Source: Averaged Metar Reports

Daily Weather History Graph

Daily Weather History Graph

Search for Another Location

Airport or City:

Trip Planner

Search our weather history database for the weather conditions in past years. The results will help you decide how hot, cold, wet, or windy it might be!

Date:

Astronomy

Aug. 01, 2013 Rise Set
Actual Time 5:26 AM BST 9:09 PM BST
Civil Twilight 4:42 AM BST 9:52 PM BST
Nautical Twilight 3:40 AM BST 10:53 PM BST
Astronomical Twilight 1:44 AM BST 12:40 AM BST
Moon 12:50 AM BST (8/1) 5:11 PM BST (8/1)
Length of Visible Light 17h 10m
Length of Day
15h 42m
Waning Crescent, 25% of the Moon is Illuminated
Aug 1
Waning Crescent
Aug 6
New
Aug 14
First Quarter
Aug 21
Full
Aug 28
Last Quarter

Hourly Weather History & Observations

Time (BST) Temp. Heat Index Dew Point Humidity Pressure Visibility Wind Dir Wind Speed Gust Speed Precip Events Conditions
12:50 AM 65 °F - 62 °F 86%  in - South 12.7 mph - -  
3:50 AM 65 °F - 62 °F 85%  in - South 11.5 mph - -  
5:50 AM 64.4 °F - 60.8 °F 88% 29.77 in 6.2 mi ESE 10.4 mph - N/A   Mostly Cloudy
6:20 AM 64.4 °F - 60.8 °F 88% 29.77 in 6.2 mi SE 10.4 mph - N/A   Mostly Cloudy
6:50 AM 64 °F - 61 °F 85%  in - SSE 12.7 mph - -  
6:50 AM 64.4 °F - 60.8 °F 88% 29.77 in 6.2 mi SE 12.7 mph - N/A   Mostly Cloudy
7:50 AM 64.4 °F - 60.8 °F 88% 29.77 in 6.2 mi SE 11.5 mph - N/A   Mostly Cloudy
8:20 AM 66.2 °F - 62.6 °F 88% 29.77 in 6.2 mi SE 12.7 mph - N/A   Mostly Cloudy
8:50 AM 66.2 °F - 62.6 °F 88% 29.77 in 6.2 mi SE 13.8 mph - N/A   Mostly Cloudy
9:20 AM 68.0 °F - 60.8 °F 78% 29.77 in 6.2 mi SSE 16.1 mph - N/A   Mostly Cloudy
9:50 AM 69 °F - 62 °F 72%  in - SSE 15.0 mph - -  
9:50 AM 69.8 °F - 62.6 °F 78% 29.77 in 6.2 mi SE 12.7 mph - N/A   Scattered Clouds
10:20 AM 69.8 °F - 62.6 °F 78% 29.77 in 6.2 mi SSE 18.4 mph - N/A   Partly Cloudy
10:50 AM 71.6 °F - 60.8 °F 69% 29.77 in 6.2 mi SE 12.7 mph - N/A   Partly Cloudy
11:20 AM 73.4 °F - 60.8 °F 65% 29.74 in 6.2 mi SE 13.8 mph - N/A   Partly Cloudy
11:50 AM 75.2 °F - 62.6 °F 65% 29.74 in 6.2 mi SSE 15.0 mph - N/A   Partly Cloudy
12:20 PM 73.4 °F - 62.6 °F 69% 29.74 in 6.2 mi SSE 12.7 mph - N/A   Partly Cloudy
12:50 PM 75 °F - 63 °F 57%  in - South 12.7 mph - -  
12:50 PM 75.2 °F - 62.6 °F 65% 29.74 in 6.2 mi SSE 11.5 mph - N/A   Partly Cloudy
1:20 PM 77.0 °F - 62.6 °F 61% 29.71 in 6.2 mi SSE 11.5 mph - N/A   Scattered Clouds
1:50 PM 77.0 °F - 62.6 °F 61% 29.71 in 6.2 mi SE 11.5 mph - N/A   Scattered Clouds
2:20 PM 77.0 °F - 64.4 °F 65% 29.68 in 6.2 mi SE 12.7 mph - N/A   Scattered Clouds
2:50 PM 77.0 °F - 64.4 °F 65% 29.68 in 6.2 mi SE 13.8 mph - N/A   Scattered Clouds
3:20 PM 77.0 °F - 66.2 °F 69% 29.68 in 6.2 mi SE 11.5 mph - N/A   Scattered Clouds
3:50 PM 80 °F - 65 °F 52%  in - South 15.0 mph - -  
3:50 PM 80.6 °F 82.7 °F 66.2 °F 61% 29.68 in 6.2 mi SSE 13.8 mph - N/A   Scattered Clouds
4:20 PM 82.4 °F 84.6 °F 66.2 °F 58% 29.65 in 6.2 mi SSE 18.4 mph - N/A   Scattered Clouds
4:50 PM 82.4 °F 84.6 °F 66.2 °F 58% 29.65 in 6.2 mi South 18.4 mph - N/A   Partly Cloudy
5:20 PM 80.6 °F 82.7 °F 66.2 °F 61% 29.65 in 6.2 mi SSE 16.1 mph - N/A   Partly Cloudy
5:50 PM 82.4 °F 84.6 °F 66.2 °F 58% 29.62 in 6.2 mi SSE 12.7 mph - N/A   Partly Cloudy
6:20 PM 73.4 °F - 64.4 °F 73% 29.62 in 6.2 mi WNW 13.8 mph - N/A   Partly Cloudy
6:50 PM 68 °F - 62 °F 77%  in - NW 16.1 mph - -  
6:50 PM 69.8 °F - 62.6 °F 78% 29.62 in - WNW 16.1 mph - N/A   Clear
8:20 PM 68.0 °F - 60.8 °F 78% 29.65 in - WNW 11.5 mph - N/A   Clear
8:50 PM 66.2 °F - 60.8 °F 83% 29.65 in - WNW 9.2 mph - N/A   Clear
9:50 PM 65 °F - 61 °F 82%  in - NW 5.8 mph - -